Location: *
(48.8780°N, 19.2358°E)
Time: 20:21:51
(UTC+00:00)

SKYMED 2 - Pass Details

Date: 18 October 2019
Orbit: 621 x 623 km, 97.9° (Epoch: 13 November)

Event Time Altitude Azimuth Distance (km) Brightness Sun altitude
Rises 16:42:40 0° 16° (NNE) 2,915 6.8 -9.6°
Reaches altitude 10° 16:44:53 10° 20° (NNE) 2,004 6.0 -10.0°
Maximum altitude 16:49:13 63° 102° (ESE) 700 3.6 -10.7°
Drops below altitude 10° 16:53:30 10° 183° (S) 1,987 6.2 -11.4°
Sets 16:55:42 0° 187° (S) 2,888 7.1 -11.8°
